This is the latest recevied weather packets stored in our database for station/object N2PPN. If no packets are shown the sender has not sent any weather packets the latest 10 day(s).
| Time | Temp. | Humidity | Pressure | Rain* | Wind** | Luminosity | Snow |
|---|---|---|---|---|---|---|---|
| 1777405967 | 16.11° C | 47% | 1022.7 hPa | 0 mm | - | 105 W/m² | - |
| 1777405664 | 16.11° C | 47% | 1022.7 hPa | 0 mm | - | 127 W/m² | - |
| 1777405361 | 16.11° C | 47% | 1022.7 hPa | 0 mm | - | 151 W/m² | - |
| 1777405056 | 16.11° C | 46% | 1022.8 hPa | 0 mm | - | 163 W/m² | - |
| 1777404751 | 16.67° C | 47% | 1022.9 hPa | 0 mm | - | 184 W/m² | - |
| 1777404448 | 16.67° C | 47% | 1023.2 hPa | 0 mm | - | 277 W/m² | - |
| 1777404144 | 17.22° C | 46% | 1023.4 hPa | 0 mm | - | 430 W/m² | - |
| 1777403840 | 16.67° C | 45% | 1023.5 hPa | 0 mm | - | 517 W/m² | - |
| 1777403535 | 16.67° C | 46% | 1023.5 hPa | 0 mm | - | 411 W/m² | - |
| 1777403235 | 16.67° C | 47% | 1023.6 hPa | 0 mm | - | 393 W/m² | - |
| 1777402930 | 16.67° C | 46% | 1023.4 hPa | 0 mm | - | 486 W/m² | - |
| 1777402626 | 16.67° C | 46% | 1023.6 hPa | 0 mm | - | 411 W/m² | - |
| 1777402324 | 16.67° C | 46% | 1023.6 hPa | 0 mm | - | 434 W/m² | - |
| 1777402023 | 16.67° C | 46% | 1023.6 hPa | 0 mm | - | 449 W/m² | - |
| 1777401723 | 16.67° C | 48% | 1023.5 hPa | 0 mm | - | 401 W/m² | - |
| 1777401419 | 16.67° C | 46% | 1023.7 hPa | 0 mm | - | 339 W/m² | - |
| 1777401114 | 16.67° C | 48% | 1023.7 hPa | 0 mm | - | 331 W/m² | - |
| 1777400810 | 16.67° C | 47% | 1023.7 hPa | 0 mm | - | 334 W/m² | - |
| 1777400507 | 16.67° C | 46% | 1024 hPa | 0 mm | - | 342 W/m² | - |
| 1777400204 | 16.67° C | 48% | 1024.1 hPa | 0 mm | - | 323 W/m² | - |
| 1777399900 | 16.67° C | 47% | 1024 hPa | 0 mm | - | 349 W/m² | - |
| 1777399597 | 16.67° C | 46% | 1023.9 hPa | 0 mm | - | 354 W/m² | - |
| 1777399294 | 16.67° C | 45% | 1024.1 hPa | 0 mm | - | 357 W/m² | - |
| 1777398993 | 17.22° C | 45% | 1023.9 hPa | 0 mm | - | 359 W/m² | - |
| 1777398689 | 16.67° C | 45% | 1024 hPa | 0 mm | - | 358 W/m² | - |
* Rain latest hour (hover to see other rain measurements)
** Current wind speed in m/s (hover to see current wind gust speed)